When you browse on this site, cookies collect data to enhance your experience and personalize the content and advertising you see.
Visit our Privacy Policy to learn more. By continuing to use the site, you agree to this use of cookies and data.
  • In Romania
  • List of Countries
  • For 7 days
  • Water Temperature
  • Weather Map
  • Weather Widgets
  • user-avatar
    Login

    Hourly Weather Gomoh

    Today, 21 October, Monday

    Time Temperature Precipitation Wind Pressure Humidity
    00:00 +26°C° 0 mm 1 mps 738 mmHg 86%
    01:00 +26°C° 0 mm 1 mps 738 mmHg 85%
    02:00 +26°C° 0 mm 1 mps 737 mmHg 85%
    03:00 +26°C° 0 mm 1 mps 737 mmHg 85%
    04:00 +25°C° 0.2 mm 1 mps 737 mmHg 84%
    05:00 +25°C° 0.2 mm 2 mps 738 mmHg 84%
    06:00 +25°C° 0.2 mm 2 mps 738 mmHg 84%
    07:00 +26°C° 0 mm 2 mps 738 mmHg 80%
    08:00 +27°C° 0 mm 2 mps 738 mmHg 76%
    09:00 +27°C° 0 mm 2 mps 739 mmHg 73%
    10:00 +28°C° 0 mm 2 mps 739 mmHg 68%
    11:00 +29°C° 0 mm 2 mps 738 mmHg 64%
    12:00 +30°C° 0 mm 3 mps 738 mmHg 60%
    13:00 +30°C° 0 mm 3 mps 737 mmHg 63%
    14:00 +29°C° 0 mm 3 mps 737 mmHg 65%
    15:00 +28°C° 0 mm 3 mps 736 mmHg 68%
    16:00 +28°C° 0 mm 3 mps 736 mmHg 70%
    17:00 +27°C° 0 mm 2 mps 736 mmHg 71%
    18:00 +26°C° 0 mm 2 mps 736 mmHg 72%
    19:00 +26°C° 0 mm 2 mps 736 mmHg 74%
    20:00 +26°C° 0 mm 2 mps 736 mmHg 75%
    21:00 +26°C° 0 mm 2 mps 737 mmHg 77%
    22:00 +25°C° 0 mm 2 mps 736 mmHg 77%
    23:00 +25°C° 0 mm 1 mps 736 mmHg 77%

    Tomorrow, 22 October, Tuesday

    Time Temperature Precipitation Wind Pressure Humidity
    00:00 +25°C° 0 mm 1 mps 736 mmHg 77%
    01:00 +24°C° 0 mm 1 mps 736 mmHg 74%
    02:00 +24°C° 0 mm 1 mps 736 mmHg 72%
    03:00 +24°C° 0 mm 1 mps 735 mmHg 70%
    04:00 +24°C° 0 mm 1 mps 736 mmHg 69%
    05:00 +24°C° 0 mm 1 mps 736 mmHg 67%
    06:00 +23°C° 0 mm 1 mps 736 mmHg 66%
    07:00 +25°C° 0 mm 1 mps 737 mmHg 62%
    08:00 +27°C° 0 mm 1 mps 737 mmHg 58%
    09:00 +28°C° 0 mm 1 mps 738 mmHg 54%
    10:00 +29°C° 0 mm 2 mps 737 mmHg 48%
    11:00 +30°C° 0 mm 2 mps 737 mmHg 42%
    12:00 +31°C° 0 mm 2 mps 737 mmHg 36%
    13:00 +32°C° 0 mm 2 mps 736 mmHg 37%
    14:00 +33°C° 0 mm 3 mps 736 mmHg 38%
    15:00 +33°C° 0 mm 3 mps 735 mmHg 39%
    16:00 +30°C° 0 mm 2 mps 735 mmHg 44%
    17:00 +29°C° 0 mm 2 mps 735 mmHg 48%
    18:00 +27°C° 0 mm 2 mps 735 mmHg 53%
    19:00 +26°C° 0 mm 2 mps 735 mmHg 53%
    20:00 +26°C° 0 mm 1 mps 736 mmHg 54%
    21:00 +25°C° 0 mm 1 mps 736 mmHg 54%
    22:00 +25°C° 0 mm 1 mps 736 mmHg 56%
    23:00 +24°C° 0 mm 1 mps 736 mmHg 57%

    Day after tomorrow, 23 October, Wednesday

    Time Temperature Precipitation Wind Pressure Humidity
    00:00 +24°C° 0 mm 1 mps 736 mmHg 58%
    01:00 +24°C° 0 mm 1 mps 736 mmHg 58%
    02:00 +24°C° 0 mm 1 mps 736 mmHg 59%
    03:00 +23°C° 0 mm 1 mps 735 mmHg 59%
    04:00 +23°C° 0 mm 1 mps 735 mmHg 59%
    05:00 +23°C° 0 mm 1 mps 735 mmHg 60%
    06:00 +21°C° 0 mm 0 mps 735 mmHg 60%
    07:00 +22°C° 0 mm 0 mps 736 mmHg 57%
    08:00 +25°C° 0 mm 1 mps 736 mmHg 55%
    09:00 +27°C° 0 mm 1 mps 737 mmHg 53%
    10:00 +26°C° 0 mm 0 mps 737 mmHg 48%
    11:00 +28°C° 0 mm 0 mps 736 mmHg 44%
    12:00 +29°C° 0 mm 0 mps 736 mmHg 39%
    13:00 +31°C° 0 mm 1 mps 736 mmHg 41%
    14:00 +30°C° 0 mm 1 mps 735 mmHg 43%
    15:00 +30°C° 0 mm 2 mps 735 mmHg 45%
    16:00 +29°C° 0 mm 1 mps 734 mmHg 47%
    17:00 +27°C° 0 mm 1 mps 734 mmHg 50%
    18:00 +26°C° 0 mm 1 mps 734 mmHg 52%
    19:00 +26°C° 0 mm 1 mps 735 mmHg 50%
    20:00 +26°C° 0 mm 1 mps 736 mmHg 48%
    21:00 +26°C° 0 mm 1 mps 736 mmHg 46%
    22:00 +26°C° 0 mm 1 mps 736 mmHg 48%
    23:00 +26°C° 0 mm 1 mps 736 mmHg 49%

    24 October, Thursday

    Time Temperature Precipitation Wind Pressure Humidity
    00:00 +26°C° 0 mm 1 mps 736 mmHg 51%
    01:00 +26°C° 0 mm 1 mps 736 mmHg 53%
    02:00 +25°C° 0 mm 1 mps 736 mmHg 54%
    03:00 +25°C° 0 mm 2 mps 736 mmHg 56%
    04:00 +25°C° 0 mm 2 mps 737 mmHg 58%
    05:00 +24°C° 0 mm 1 mps 737 mmHg 61%
    06:00 +24°C° 0 mm 1 mps 737 mmHg 64%
    07:00 +23°C° 0.9 mm 1 mps 737 mmHg 72%
    08:00 +22°C° 0.9 mm 1 mps 738 mmHg 81%
    09:00 +20°C° 0.9 mm 2 mps 739 mmHg 89%
    10:00 +20°C° 1.3 mm 2 mps 738 mmHg 90%
    11:00 +20°C° 1.3 mm 2 mps 738 mmHg 90%
    12:00 +21°C° 1.3 mm 1 mps 738 mmHg 90%
    13:00 +21°C° 1.5 mm 1 mps 737 mmHg 91%
    14:00 +20°C° 1.5 mm 1 mps 737 mmHg 92%
    15:00 +20°C° 1.5 mm 1 mps 736 mmHg 92%
    16:00 +20°C° 0.9 mm 1 mps 736 mmHg 93%
    17:00 +20°C° 0.9 mm 1 mps 736 mmHg 94%
    18:00 +20°C° 0.9 mm 1 mps 736 mmHg 95%
    19:00 +20°C° 0.5 mm 1 mps 737 mmHg 95%
    20:00 +20°C° 0.5 mm 1 mps 737 mmHg 95%
    21:00 +20°C° 0.5 mm 2 mps 738 mmHg 94%
    22:00 +21°C° 0.2 mm 1 mps 738 mmHg 95%
    23:00 +21°C° 0.2 mm 1 mps 738 mmHg 95%

    25 October, Friday

    Time Temperature Precipitation Wind Pressure Humidity
    00:00 +19°C° 0.2 mm 0 mps 738 mmHg 95%
    01:00 +21°C° 0.2 mm 1 mps 737 mmHg 95%
    02:00 +21°C° 0.2 mm 1 mps 737 mmHg 95%
    03:00 +21°C° 0.2 mm 1 mps 737 mmHg 95%
    04:00 +21°C° 0.3 mm 1 mps 737 mmHg 96%
    05:00 +21°C° 0.3 mm 1 mps 737 mmHg 96%
    06:00 +21°C° 0.3 mm 1 mps 737 mmHg 96%
    07:00 +21°C° 0.2 mm 1 mps 738 mmHg 96%
    08:00 +21°C° 0.2 mm 1 mps 738 mmHg 95%
    09:00 +20°C° 0.2 mm 2 mps 739 mmHg 94%
    10:00 +20°C° 0.2 mm 2 mps 738 mmHg 94%
    11:00 +20°C° 0.2 mm 2 mps 738 mmHg 93%
    12:00 +20°C° 0.2 mm 2 mps 738 mmHg 92%
    13:00 +21°C° 0.3 mm 1 mps 738 mmHg 92%
    14:00 +21°C° 0.3 mm 1 mps 737 mmHg 92%
    15:00 +21°C° 0.3 mm 1 mps 737 mmHg 92%
    16:00 +21°C° 0.2 mm 1 mps 737 mmHg 92%
    17:00 +20°C° 0.2 mm 1 mps 737 mmHg 93%
    18:00 +20°C° 0.2 mm 1 mps 737 mmHg 93%
    19:00 +20°C° 0.3 mm 1 mps 737 mmHg 93%
    20:00 +20°C° 0.3 mm 1 mps 738 mmHg 93%
    21:00 +20°C° 0.3 mm 1 mps 738 mmHg 93%
    22:00 +20°C° 0.9 mm 1 mps 738 mmHg 93%
    23:00 +20°C° 0.9 mm 1 mps 738 mmHg 94%

    26 October, Saturday

    Time Temperature Precipitation Wind Pressure Humidity
    00:00 +20°C° 0.9 mm 1 mps 738 mmHg 95%
    01:00 +20°C° 1.2 mm 1 mps 738 mmHg 95%
    02:00 +19°C° 1.2 mm 1 mps 738 mmHg 95%
    03:00 +19°C° 1.2 mm 1 mps 737 mmHg 95%
    04:00 +19°C° 0.5 mm 1 mps 737 mmHg 95%
    05:00 +19°C° 0.5 mm 1 mps 737 mmHg 94%
    06:00 +20°C° 0.5 mm 1 mps 738 mmHg 93%
    07:00 +20°C° 0.4 mm 1 mps 738 mmHg 92%
    08:00 +20°C° 0.4 mm 1 mps 739 mmHg 90%
    09:00 +20°C° 0.4 mm 1 mps 739 mmHg 89%
    10:00 +20°C° 1.6 mm 1 mps 739 mmHg 90%
    11:00 +19°C° 1.6 mm 2 mps 739 mmHg 91%
    12:00 +19°C° 1.6 mm 2 mps 739 mmHg 92%
    13:00 +20°C° 3.1 mm 1 mps 738 mmHg 93%
    14:00 +20°C° 3.1 mm 1 mps 738 mmHg 95%
    15:00 +20°C° 3.1 mm 1 mps 737 mmHg 96%
    16:00 +20°C° 1.5 mm 1 mps 737 mmHg 96%
    17:00 +20°C° 1.5 mm 1 mps 738 mmHg 96%
    18:00 +20°C° 1.5 mm 1 mps 738 mmHg 95%
    19:00 +20°C° 0.1 mm 1 mps 738 mmHg 95%
    20:00 +20°C° 0.1 mm 1 mps 739 mmHg 95%
    21:00 +20°C° 0.1 mm 1 mps 739 mmHg 94%
    22:00 +20°C° 0.1 mm 1 mps 739 mmHg 94%
    23:00 +20°C° 0.1 mm 1 mps 739 mmHg 94%
    Show more